Preview of NWS' New Version of Forecast
This preview is not operational and should not be used for support decisions.

Regional Weather Roundup (RWR)

Issued by National Weather Service (NWS)

                            
000
ASUS43 KLSX 210957
RWRMO 

WEATHER SUMMARY FOR MISSOURI
NATIONAL WEATHER SERVICE SPRINGFIELD MO
500 AM CDT SAT SEP 21 2019

NOTE: "FAIR" INDICATES FEW OR NO CLOUDS BELOW 12,000 FEET WITH NO
       SIGNIFICANT WEATHER AND/OR OBSTRUCTIONS TO VISIBILITY.
       CURRENT SKY AND/OR WEATHER CONDITIONS ARE NOT AVAILABLE FOR
       CHILLICOTHE AND FARMINGTON.

MOZ001>031-035>038-043-044-053-054-211100-
...NORTHERN AND WESTERN MISSOURI...
  
CITY           SKY/WX    TMP DP  RH WIND       PRES   REMARKS
KANSAS CTY INT CLOUDY    73  70  90 S17       29.96S                  
LEE'S SUMMIT   MOCLDY    74  68  81 S16G26    29.98F                  
ST JOSEPH      CLOUDY    74  69  85 S10       29.93F                  
CHILLICOTHE      N/A     73  70  90 S9        29.99S                  
     
$$
MOZ066>068-077>081-088>096-101>105-211100-
...SOUTHWEST MISSOURI...
  
CITY           SKY/WX    TMP DP  RH WIND       PRES   REMARKS
SPRINGFIELD    CLEAR     72  67  84 S15       30.06R                  
JOPLIN         CLOUDY    75  69  81 S14       30.03R                  
               
$$
MOZ032>034-039>042-045>050-055>058-069>072-211100-
...CENTRAL MISSOURI...  
  
CITY           SKY/WX    TMP DP  RH WIND       PRES   REMARKS
COLUMBIA       NOT AVBL                                               
JEFFERSON CITY CLOUDY    76  68  76 S6        30.07R                  
ROLLA          MOCLDY    74  66  76 S14       30.11S                  
SEDALIA        MOCLDY    71  68  90 S14       30.04S                  
WARRENSBURG    CLOUDY    72  68  88 SE10      30.01S                  
               
$$
MOZ051-052-059>065-211100-
...EAST CENTRAL MISSOURI...
  
CITY           SKY/WX    TMP DP  RH WIND       PRES   REMARKS
ST LOUIS INTL  NOT AVBL                                               
                   
$$
MOZ072>076-082>087-097>100-106>115-211100-
...SOUTH CENTRAL AND SOUTHEAST MISSOURI...
  
CITY           SKY/WX    TMP DP  RH WIND       PRES   REMARKS
CAPE GIRARDEAU FAIR      70  65  84 CALM      30.16R                  
POPLAR BLUFF   MOCLDY    72  66  81 SW3       30.15R                  
WEST PLAINS    CLOUDY    71  67  87 S7        30.15R                  
                                       
$$